Location: Newark
(4.9167°N, 114.9167°E)
Time: 05:03:18
(UTC+00:00)

OTV 5 (USA 277) - Visible Passes

Search period start: 17 October 2019 00:00
Search period end: 27 October 2019 00:00
Orbit: 310 x 324 km, 54.5° (Epoch: 08 October)

Date Brightness Start Highest point End Pass type
(mag) Time Alt. Az. Time Alt. Az. Time Alt. Az.
21 Oct ? 10:49:00 10° SSE 10:50:04 13° SE 10:50:04 13° SE visible
22 Oct ? 11:02:07 10° SSW 11:04:48 67° SE 11:05:16 52° ENE visible
23 Oct ? 11:17:12 10° WSW 11:19:18 20° WNW 11:20:28 15° NNW visible
24 Oct ? 21:15:28 10° N 21:17:43 23° ENE 21:19:58 10° ESE visible
25 Oct ? 21:29:38 11° NW 21:32:12 52° WSW 21:34:50 10° SSE visible
